Simultaneous Nadir Overpasses (SNOs) Predictions

Prediction of SNOs between AQUA and METOP-C Satellite Orbit:

Table of predicted SNOs for the next 14.0 days since TLE Epoch: 3/4/2023
Index Date (AQUA) Time (AQUA) Lat,Lon (AQUA) SZA (AQUA ) Date (METOP-C) Time (METOP-C) Lat,Lon (METOP-C) SZA (METOP-C ) Distance(km) Time Diff (sec)
1 03/04/2023 19:51:33 74.27,-122.42 80.62 03/04/2023 19:50:46 74.28,-122.33 80.63 2.97 47
2 03/04/2023 20:40:58 -74.32, 45.11 99.35 03/04/2023 20:41:28 -74.32, 45.10 99.35 0.46 30
3 03/07/2023 13:45:02 74.03, -30.23 79.29 03/07/2023 13:43:51 73.95, -31.38 79.27 36.41 71
4 03/07/2023 14:34:31 -74.28, 136.84 100.46 03/07/2023 14:34:27 -74.29, 136.79 100.44 2.26 4
5 03/07/2023 15:23:59 74.37, -55.74 79.63 03/07/2023 15:25:04 74.37, -55.67 79.62 2.18 65
6 03/10/2023 08:28:04 -74.29,-131.55 101.53 03/10/2023 08:27:26 -74.30,-131.44 101.51 3.53 38
7 03/10/2023 09:17:31 74.34, 35.98 78.51 03/10/2023 09:18:04 74.33, 35.98 78.50 0.74 33
8 03/13/2023 02:21:34 -74.25, -39.82 102.65 03/13/2023 02:20:26 -74.24, -39.83 102.65 1.37 68
9 03/13/2023 03:11:01 74.31, 127.70 77.40 03/13/2023 03:11:03 74.32, 127.71 77.41 1.82 2
10 03/13/2023 04:00:30 -74.54, -65.24 102.36 03/13/2023 04:01:41 -74.56, -64.35 102.39 26.35 71
11 03/15/2023 21:04:28 74.28,-140.58 76.28 03/15/2023 21:04:01 74.30,-140.59 76.30 2.67 27
12 03/15/2023 21:53:54 -74.36, 26.87 103.65 03/15/2023 21:54:43 -74.34, 26.84 103.68 2.33 49



Historial Predications of SNOs between AQUA and METOP-C
